| time (UTC) | temp F | wind direction | speed MPH | gust MPH | rain 1hr in | rain 24hr in | rain mn in | humidity % | barometer mb |
| 20260503195835 | 60 | 0.0 | 0.0 | 0.00 | 0.00 | 0.00 | 43 | 1016.0 | |
| 20260503194835 | 60 | 0.0 | 0.0 | 0.00 | 0.00 | 0.00 | 42 | 1015.9 | |
| 20260503192610 | 60 | 0.0 | 0.0 | 0.00 | 0.00 | 0.00 | 41 | 1015.9 | |
| 20260503191610 | 61 | 0.0 | 0.0 | 0.00 | 0.00 | 0.00 | 41 | 1015.9 | |
| 20260503190611 | 61 | 0.0 | 0.0 | 0.00 | 0.00 | 0.00 | 41 | 1015.9 | |
| 20260503185611 | 61 | 0.0 | 0.0 | 0.00 | 0.00 | 0.00 | 41 | 1015.9 | |
| 20260503184611 | 62 | 0.0 | 0.0 | 0.00 | 0.00 | 0.00 | 40 | 1015.8 | |
| 20260503183610 | 62 | 0.0 | 0.0 | 0.00 | 0.00 | 0.00 | 40 | 1015.8 | |
| 20260503182611 | 62 | 0.0 | 0.0 | 0.00 | 0.00 | 0.00 | 39 | 1015.9 | |
| 20260503181611 | 62 | 0.0 | 0.0 | 0.00 | 0.00 | 0.00 | 38 | 1015.8 | |
| 20260503180611 | 63 | 0.0 | 0.0 | 0.00 | 0.00 | 0.00 | 38 | 1015.8 | |
| 20260503175610 | 63 | 0.0 | 0.0 | 0.00 | 0.00 | 0.00 | 37 | 1015.8 | |
| 20260503174610 | 63 | 0.0 | 0.0 | 0.00 | 0.00 | 0.00 | 36 | 1015.8 | |
| 20260503130925 | 68 | 0.0 | 0.0 | 0.00 | 0.00 | 0.00 | 31 | 1017.3 | |
| 20260503110437 | 66 | 0.0 | 0.0 | 0.00 | 0.00 | 0.00 | 33 | 1018.5 | |
| 20260503090213 | 60 | 0.0 | 0.0 | 0.00 | 0.00 | 0.00 | 41 | 1019.8 | |
| 20260503081213 | 60 | 0.0 | 0.0 | 0.00 | 0.00 | 0.00 | 45 | 1019.9 | |
| 20260503080213 | 58 | 0.0 | 0.0 | 0.00 | 0.00 | 0.00 | 44 | 1019.8 | |
| 20260503071950 | 56 | 0.0 | 0.0 | 0.00 | 0.00 | 0.00 | 45 | 1019.9 | |
| 20260503070950 | 55 | 0.0 | 0.0 | 0.00 | 0.00 | 0.00 | 47 | 1019.8 | |
| 20260503054726 | 52 | 0.0 | 0.0 | 0.00 | 0.00 | 0.00 | 54 | 1019.4 | |
| 20260503053726 | 51 | 0.0 | 0.0 | 0.00 | 0.00 | 0.00 | 55 | 1019.3 | |
| 20260503052726 | 51 | 0.0 | 0.0 | 0.00 | 0.00 | 0.00 | 55 | 1019.2 | |
| 20260503051726 | 50 | 0.0 | 0.0 | 0.00 | 0.00 | 0.00 | 55 | 1019.2 | |
| 20260503050726 | 50 | 0.0 | 0.0 | 0.00 | 0.00 | 0.00 | 55 | 1019.2 | |
| 20260503044502 | 50 | 0.0 | 0.0 | 0.00 | 0.00 | 0.00 | 54 | 1019.3 | |
| 20260503042238 | 50 | 0.0 | 0.0 | 0.00 | 0.00 | 0.00 | 54 | 1019.3 | |
| 20260503041238 | 51 | 0.0 | 0.0 | 0.00 | 0.00 | 0.00 | 52 | 1019.3 | |
| 20260503040238 | 50 | 0.0 | 0.0 | 0.00 | 0.00 | 0.00 | 51 | 1019.3 | |
| 20260503035238 | 51 | 0.0 | 0.0 | 0.00 | 0.00 | 0.00 | 47 | 1019.2 | |
| 20260503034238 | 52 | 0.0 | 0.0 | 0.00 | 0.00 | 0.00 | 45 | 1019.2 | |
| 20260503033238 | 53 | 0.0 | 0.0 | 0.00 | 0.00 | 0.00 | 43 | 1019.3 | |
| 20260503025751 | 54 | 0.0 | 0.0 | 0.00 | 0.00 | 0.00 | 39 | 1019.2 | |
| 20260503024751 | 55 | 0.0 | 0.0 | 0.00 | 0.00 | 0.00 | 37 | 1019.2 | |
| 20260503023751 | 56 | 0.0 | 0.0 | 0.00 | 0.00 | 0.00 | 35 | 1019.3 | |
| 20260503022752 | 57 | 0.0 | 0.0 | 0.00 | 0.00 | 0.00 | 35 | 1019.1 | |
| 20260503021751 | 57 | 0.0 | 0.0 | 0.00 | 0.00 | 0.00 | 35 | 1019.2 | |
| 20260503020751 | 57 | 0.0 | 0.0 | 0.00 | 0.00 | 0.00 | 34 | 1019.2 | |
| 20260503015751 | 57 | 0.0 | 0.0 | 0.00 | 0.00 | 0.00 | 34 | 1019.3 | |
| 20260503014752 | 57 | 0.0 | 0.0 | 0.00 | 0.00 | 0.00 | 34 | 1019.3 | |
| 20260503013751 | 58 | 0.0 | 0.0 | 0.00 | 0.00 | 0.00 | 33 | 1019.3 | |
| 20260503011527 | 58 | 0.0 | 0.0 | 0.00 | 0.00 | 0.00 | 33 | 1019.3 | |
| 20260503010527 | 58 | 0.0 | 0.0 | 0.00 | 0.00 | 0.00 | 33 | 1019.3 | |
| 20260503005527 | 58 | 0.0 | 0.0 | 0.00 | 0.00 | 0.00 | 33 | 1019.4 | |
| 20260503004527 | 58 | 0.0 | 0.0 | 0.00 | 0.00 | 0.00 | 33 | 1019.5 | |
| 20260503003528 | 58 | 0.0 | 0.0 | 0.00 | 0.00 | 0.00 | 33 | 1019.5 | |
| 20260503002527 | 58 | 0.0 | 0.0 | 0.00 | 0.00 | 0.00 | 34 | 1019.6 | |
| 20260503001527 | 58 | 0.0 | 0.0 | 0.00 | 0.00 | 0.00 | 34 | 1019.6 | |
| 20260503000527 | 58 | 0.0 | 0.0 | 0.00 | 0.00 | 0.00 | 34 | 1019.7 | |
| 20260502233040 | 58 | 0.0 | 0.0 | 0.00 | 0.00 | 0.00 | 35 | 1019.9 | |
| 20260502232040 | 58 | 0.0 | 0.0 | 0.00 | 0.00 | 0.00 | 35 | 1019.9 | |
| 20260502231040 | 58 | 0.0 | 0.0 | 0.00 | 0.00 | 0.00 | 34 | 1020.0 | |
| 20260502224815 | 59 | 0.0 | 0.0 | 0.00 | 0.00 | 0.00 | 32 | 1020.2 | |
| 20260502222550 | 59 | 0.0 | 0.0 | 0.00 | 0.00 | 0.00 | 33 | 1020.2 | |
| 20260502221550 | 59 | 0.0 | 0.0 | 0.00 | 0.00 | 0.00 | 34 | 1020.2 | |
| 20260502220550 | 59 | 0.0 | 0.0 | 0.00 | 0.00 | 0.00 | 36 | 1020.2 | |
| 20260502215550 | 59 | 0.0 | 0.0 | 0.00 | 0.00 | 0.00 | 36 | 1020.2 | |
| 20260502214550 | 60 | 0.0 | 0.0 | 0.00 | 0.00 | 0.00 | 34 | 1020.3 | |
| 20260502213550 | 60 | 0.0 | 0.0 | 0.00 | 0.00 | 0.00 | 32 | 1020.2 | |
| 20260502212550 | 60 | 0.0 | 0.0 | 0.00 | 0.00 | 0.00 | 31 | 1020.3 | |
| 20260502211550 | 60 | 0.0 | 0.0 | 0.00 | 0.00 | 0.00 | 31 | 1020.3 | |
| 20260502210550 | 61 | 0.0 | 0.0 | 0.00 | 0.00 | 0.00 | 31 | 1020.4 | |
| 20260502205550 | 60 | 0.0 | 0.0 | 0.00 | 0.00 | 0.00 | 31 | 1020.4 | |
| 20260502204550 | 61 | 0.0 | 0.0 | 0.00 | 0.00 | 0.00 | 31 | 1020.4 | |
| 20260502203550 | 61 | 0.0 | 0.0 | 0.00 | 0.00 | 0.00 | 31 | 1020.5 | |
| 20260502202550 | 60 | 0.0 | 0.0 | 0.00 | 0.00 | 0.00 | 32 | 1020.6 | |
| 20260502201550 | 60 | 0.0 | 0.0 | 0.00 | 0.00 | 0.00 | 32 | 1020.6 |